This demonstration page uses our WeatherBlox Daily Observations layout. Learn more.

Left ArrowRight Arrow

31.31129, -92.44514

Hourly Observations for July 3, 2022

Temp ( °F °C ) Dew Point ( °F °C ) Humidity (%) Winds ( mph kmh ) Pressure ( in mb ) Visibility ( mi km ) Precip ( " mm )
12:53 am 00:53 Clear 78 25.6 75 23.9 90 90 SSE 6 9 29.98 1015 10 16 0.00 0.00
1:53 am 01:53 Clear 78 25.6 75 23.9 90 90 SSE 5 7 29.98 1015 8 13 0.00 0.00
2:53 am 02:53 Mostly Clear 77 25 75 23.9 94 94 SSE 3 6 29.98 1015 7 11 0.00 0.00
3:53 am 03:53 Clear 77 25 75 23.9 94 94 SSE 6 9 29.99 1016 7 11 0.00 0.00
4:53 am 04:53 Clear 77 25 74 23.3 90 90 Calm 30.01 1016 6 10 0.00 0.00
5:53 am 05:53 Clear 77 25 74 23.3 90 90 Calm 30.03 1017 7 11 0.00 0.00
6:53 am 06:53 Sunny 77 25 75 23.9 94 94 SSE 5 7 30.03 1017 4 6 0.00 0.00
7:20 am 07:20 Mostly Sunny 78 25.6 76 24.4 93 93 S 5 7 30.03 1017 4 6 0.00 0.00
7:53 am 07:53 Mostly Sunny 79 26.1 77 25 94 94 S 6 9 30.04 1017 5 8 0.00 0.00
8:53 am 08:53 Partly Cloudy 83 28.3 77 25 82 82 SSW 3 6 30.06 1018 9 14 0.00 0.00
9:05 am 09:05 Mostly Cloudy 84 28.9 78 25.6 82 82 WSW 5 7 30.06 1018 9 14 0.00 0.00
9:23 am 09:23 Mostly Cloudy 85 29.4 78 25.6 80 80 SW 5 7 30.06 1018 9 14 0.00 0.00
9:53 am 09:53 Mostly Cloudy 86 30 76 24.4 72 72 W 8 13 30.06 1018 10 16 0.00 0.00
10:13 am 10:13 Mostly Cloudy 87 30.6 77 25 72 72 SW 6 9 30.04 1017 10 16 0.00 0.00
10:53 am 10:53 Mostly Cloudy 88 31.1 76 24.4 68 68 WSW 7 11 30.06 1018 10 16 0.00 0.00
11:53 am 11:53 Partly Cloudy 91 32.8 75 23.9 59 59 WNW 6 9 30.05 1018 10 16 0.00 0.00
12:53 pm 12:53 Mostly Sunny 92 33.3 75 23.9 58 58 VRB 3 6 30.04 1017 10 16 0.00 0.00
1:53 pm 13:53 Sunny 94 34.4 73 22.8 51 51 VRB 3 6 30.01 1016 10 16 0.00 0.00
2:53 pm 14:53 Partly Cloudy 95 35 72 22.2 47 47 SW 3 6 30.00 1016 10 16 0.00 0.00
3:53 pm 15:53 Sunny 96 35.6 73 22.8 47 47 SSW 3 6 29.98 1015 10 16 0.00 0.00
4:53 pm 16:53 Sunny 96 35.6 70 21.1 43 43 Calm 29.97 1015 10 16 0.00 0.00
5:53 pm 17:53 Mostly Sunny 94 34.4 74 23.3 52 52 SSE 12 19 29.96 1015 10 16 0.00 0.00
6:53 pm 18:53 Mostly Sunny 93 33.9 72 22.2 50 50 SE 9 15 29.97 1015 10 16 0.00 0.00
7:53 pm 19:53 Mostly Sunny 91 32.8 74 23.3 57 57 SSE 8 13 29.98 1015 10 16 0.00 0.00
8:53 pm 20:53 Clear 86 30 75 23.9 70 70 S 7 11 29.99 1016 10 16 0.00 0.00
9:53 pm 21:53 Clear 84 28.9 75 23.9 74 74 SSE 3 6 30.02 1017 10 16 0.00 0.00
10:53 pm 22:53 Clear 82 27.8 75 23.9 79 79 S 7 11 30.03 1017 10 16 0.00 0.00
11:53 pm 23:53 Clear 82 27.8 74 23.3 77 77 S 5 7 30.03 1017 10 16 0.00 0.00

Powered by AerisWeather